DW7287 Weather Reports


time (UTC)temp
F
wind
direction
speed
knots
gust
knots
rain 1hr
in
rain 24hr
in
rain mn
in
humidity
%
barometer
mb
20260905001610 76 0 0.0 0.9 0.00 0.01 0.01 89 1015.1
20260905000124 76 0 0.0 0.9 0.00 0.01 0.01 88 1015.0
20260904234607 77 0 0.0 2.6 0.00 0.01 0.01 89 1014.5
20260904233104 77 20 0.0 1.7 0.00 0.01 0.01 89 1014.3
20260904231604 78 40 0.0 2.6 0.00 0.01 0.01 87 1014.6
20260904224605 79 0 0.9 1.7 0.00 0.01 0.01 84 1014.8
20260904223107 80 0 0.0 0.9 0.00 0.01 0.01 81 1015.1
20260904221604 80 0 0.0 1.7 0.00 0.01 0.01 80 1015.2
20260904220118 80 0 0.0 1.7 0.00 0.01 0.01 79 1016.0
20260904214556 80 76 0.0 2.6 0.00 0.01 0.01 79 1016.0
20260904213107 80 92 0.9 2.6 0.00 0.01 0.01 80 1016.1
20260904211606 80 0 0.0 3.5 0.00 0.01 0.01 79 1016.3
20260904210119 80 87 0.9 5.2 0.00 0.01 0.01 80 1016.4
20260904204604 78 252 0.9 5.2 0.00 0.01 0.01 82 1015.9
20260904203109 76 360 0.9 3.5 0.00 0.01 0.01 86 1015.7
20260904201604 75 360 0.9 3.5 0.00 0.01 0.01 85 1015.7
20260904200105 74 34 0.9 2.6 0.01 0.01 0.01 87 1015.9
20260904194609 74 0 0.0 0.9 0.01 0.01 0.01 86 1016.4
20260904193116 75 0 0.0 1.7 0.01 0.01 0.01 85 1016.5
20260904191603 77 360 0.9 7.0 0.01 0.01 0.01 79 1016.4
20260904184611 91 46 3.5 13.0 0.00 0.00 0.00 56 1016.4
20260904183104 93 219 0.0 7.0 0.00 0.00 0.00 57 1015.5
20260904181610 93 261 1.7 6.1 0.00 0.00 0.00 56 1015.7
20260904180119 93 272 0.9 5.2 0.00 0.00 0.00 58 1015.5
20260904174613 92 0 0.9 7.0 0.00 0.00 0.00 59 1016.0
20260904173110 92 316 1.7 7.0 0.00 0.00 0.00 58 1016.4
20260904171606 93 250 0.0 4.3 0.00 0.00 0.00 59 1016.7
20260904164607 92 152 0.9 5.2 0.00 0.00 0.00 61 1016.9
20260904163110 92 0 0.0 0.0 0.00 0.00 0.00 60 1017.1
20260904161605 92 0 0.0 0.0 0.00 0.00 0.00 61 1017.2
20260904154559 91 0 0.0 0.0 0.00 0.00 0.00 67 1017.3
20260904153119 90 0 0.0 0.0 0.00 0.00 0.00 69 1017.4
20260904151605 89 0 0.0 0.0 0.00 0.00 0.00 67 1017.4
20260904150103 89 0 0.0 0.0 0.00 0.00 0.00 67 1017.5
20260904144607 88 0 0.0 0.0 0.00 0.00 0.00 73 1017.5
20260904143109 87 0 0.0 0.0 0.00 0.00 0.00 74 1017.4
20260904141607 86 0 0.0 0.0 0.00 0.00 0.00 76 1017.4
20260904140107 84 0 0.0 0.0 0.00 0.00 0.00 81 1017.4
20260904134607 82 0 0.0 0.0 0.00 0.00 0.00 82 1017.5
20260904133113 80 0 0.0 0.0 0.00 0.00 0.00 86 1017.6
20260904131613 79 0 0.0 0.0 0.00 0.00 0.00 90 1017.8
20260904130109 76 0 0.0 0.0 0.00 0.00 0.00 94 1017.7
20260904124612 75 0 0.0 0.0 0.00 0.00 0.00 96 1017.9
20260904123117 74 0 0.0 0.0 0.00 0.00 0.00 97 1017.6
20260904121605 73 0 0.0 0.0 0.00 0.00 0.00 97 1017.4
20260904120107 71 0 0.0 0.0 0.00 0.00 0.00 96 1017.4
20260904114559 71 0 0.0 0.0 0.00 0.00 0.00 96 1017.4
20260904113102 71 0 0.0 0.0 0.00 0.00 0.00 96 1017.0
20260904111611 71 0 0.0 0.0 0.00 0.00 0.00 96 1016.8
20260904110110 71 0 0.0 0.0 0.00 0.00 0.00 96 1016.7
20260904104605 71 0 0.0 0.0 0.00 0.00 0.00 96 1016.6
20260904103101 71 0 0.0 0.0 0.00 0.00 0.00 95 1016.5
20260904101615 71 0 0.0 0.0 0.00 0.00 0.00 95 1016.5
20260904100103 71 0 0.0 0.0 0.00 0.00 0.00 95 1016.4
20260904094601 71 0 0.0 0.0 0.00 0.00 0.00 95 1016.2
20260904093118 71 0 0.0 0.0 0.00 0.00 0.00 95 1016.2
20260904091602 72 0 0.0 0.0 0.00 0.00 0.00 95 1016.4
20260904084600 72 0 0.0 0.0 0.00 0.00 0.00 95 1016.2
20260904083105 72 0 0.0 0.0 0.00 0.00 0.00 95 1016.2
20260904081602 72 0 0.0 0.0 0.00 0.00 0.00 95 1016.1
20260904074606 73 0 0.0 0.0 0.00 0.00 0.00 95 1016.0
20260904073103 73 0 0.0 0.0 0.00 0.00 0.00 95 1016.1
20260904071602 73 0 0.0 0.0 0.00 0.00 0.00 95 1016.0
20260904070104 73 0 0.0 0.0 0.00 0.00 0.00 94 1016.2
20260904064607 74 0 0.0 0.0 0.00 0.00 0.00 94 1016.2
20260904063104 74 0 0.0 0.0 0.00 0.00 0.00 94 1016.3
20260904061601 74 0 0.0 0.0 0.00 0.00 0.00 94 1016.5
20260904060106 74 0 0.0 0.0 0.00 0.00 0.00 94 1016.7
20260904054600 74 0 0.0 0.0 0.00 0.00 0.00 94 1016.7
20260904053106 74 0 0.0 0.0 0.00 0.00 0.00 95 1016.7
20260904051604 75 0 0.0 0.0 0.00 0.00 0.00 94 1016.8
20260904050103 75 0 0.0 0.0 0.00 0.00 0.00 94 1016.7
20260904044612 75 0 0.0 0.0 0.00 0.00 0.00 93 1016.7
20260904043103 75 0 0.0 0.0 0.00 0.00 0.00 94 1016.7
20260904041602 75 0 0.0 0.0 0.00 0.00 0.00 93 1016.7
20260904040106 76 0 0.0 0.0 0.00 0.00 0.00 93 1016.6
20260904034605 76 0 0.0 0.0 0.00 0.00 0.00 92 1016.5
20260904033107 76 0 0.0 0.0 0.00 0.00 0.00 92 1016.5
20260904031601 76 0 0.0 0.0 0.00 0.00 0.00 92 1016.6
20260904024610 77 0 0.0 0.0 0.00 0.00 0.00 91 1016.7
20260904023104 77 0 0.0 0.0 0.00 0.00 0.00 91 1016.8
20260904021602 77 0 0.0 0.0 0.00 0.00 0.00 90 1016.8
20260904020100 78 0 0.0 0.0 0.00 0.00 0.00 89 1016.8
20260904014602 78 0 0.0 0.0 0.00 0.00 0.00 88 1016.7
20260904013102 79 0 0.0 0.0 0.00 0.00 0.00 88 1016.7
20260904011613 78 0 0.0 0.0 0.00 0.00 0.00 86 1016.4
20260904010110 80 0 0.0 0.0 0.00 0.00 0.00 84 1016.5
20260904004558 80 0 0.0 0.0 0.00 0.00 0.00 83 1016.4
20260904003105 81 0 0.0 0.0 0.00 0.00 0.00 83 1016.3